Overview Statistics Trail Chart Weather Telemetry Raw packets
 

This is the latest recevied weather packets stored in our database for station/object KG7FOQ-13. If no packets are shown the sender has not sent any weather packets the latest 10 day(s).

<< 79 80 81 82 83 84 85 >>
Time Temp. Humidity Pressure Rain* Wind** Luminosity Snow
1788025201 23.33° C 40% 1016.2 hPa 0 mm - - -
1788024900 23.33° C 39% 1016.3 hPa 0 mm - - -
1788024599 23.89° C 37% 1016.2 hPa 0 mm - - -
1788024299 23.89° C 35% 1016.3 hPa 0 mm - - -
1788023998 23.89° C 33% 1016.2 hPa 0 mm - - -
1788023698 24.44° C 36% 1016.2 hPa 0 mm - - -
1788023397 23.89° C 33% 1016.2 hPa 0 mm - - -
1788023097 23.89° C 35% 1016.2 hPa 0 mm - - -
1788022796 23.33° C 33% 1016.3 hPa 0 mm - - -
1788022496 23.89° C 37% 1016.2 hPa 0 mm - - -
1788022195 23.89° C 38% 1016.3 hPa 0 mm - - -
1788021895 23.33° C 35% 1016.3 hPa 0 mm - - -
1788021594 23.33° C 39% 1016.3 hPa 0 mm - - -
1788021293 23.33° C 36% 1016.3 hPa 0 mm - - -
1788020993 23.33° C 40% 1016.4 hPa 0 mm - - -
1788020693 22.78° C 41% 1016.4 hPa 0 mm - - -
1788020392 22.78° C 41% 1016.3 hPa 0 mm - - -
1788020091 22.78° C 43% 1016.3 hPa 0 mm - - -
1788019791 22.22° C 41% 1016.2 hPa 0 mm - - -
1788019490 22.22° C 47% 1016.2 hPa 0 mm - - -
1788019190 21.67° C 56% 1016.3 hPa 0 mm - - -
1788018889 21.67° C 59% 1016.4 hPa 0 mm - - -
1788018589 21.11° C 58% 1016.4 hPa 0 mm - - -
1788018288 20.56° C 52% 1016.4 hPa 0 mm - - -
1788017988 21.11° C 56% 1016.5 hPa 0 mm - - -

* Rain latest hour (hover to see other rain measurements)
** Current wind speed in m/s (hover to see current wind gust speed)